Regional Weather Roundup
Issued by NWS

Home | Current Version | Previous Version | Text Only | Print | Product List | Glossary On
Versions: 1 2 3 4 5 6 7 8 9 10 11 12 13 14 15 16 17 18 19 20 21 22 23 24 25 26 27
000
ASUS45 KREV 311410
RWRNV
NEVADA REGIONAL WEATHER ROUNDUP
NATIONAL WEATHER SERVICE RENO NV
700 AM PDT WED AUG 31 2016

NOTE: "FAIR" INDICATES FEW OR NO CLOUDS BELOW 12,000 FEET WITH NO
SIGNIFICANT WEATHER AND/OR OBSTRUCTIONS TO VISIBILITY.

NVZ001-003-004-311500-
WESTERN NEVADA

CITY           SKY/WX    TMP DP  RH WIND       PRES   REMARKS
RENO           MOCLDY    64  34  32 CALM      30.03R
CARSON CITY    FAIR      61  28  29 CALM      30.06R
MINDEN         FAIR      59  34  38 N3        30.05R
PYRAMID LAKE     N/A     72 N/A N/A W3          N/A
FALLON         MOCLDY    57  26  30 SE3       29.99R
LOVELOCK       CLOUDY    56  27  32 SE7       29.98S
HAWTHORNE        N/A     64  32  29 CALM      30.02S
$$

NVZ002-CAZ072-073-311500-
NORTHERN AND CENTRAL SIERRA

CITY           SKY/WX    TMP DP  RH WIND       PRES   REMARKS
S. LAKE TAHOE  PTCLDY    49  33  54 CALM      30.15R
TRUCKEE        PTCLDY    50  30  46 CALM      30.13S
SQUAW VLY 8000 NOT AVBL
SUSANVILLE     CLEAR     52  34  50 SW5       30.03R
MAMMOTH LAKES  FAIR      49  27  42 N3        30.23R
BRIDGEPORT       N/A     49  26  41 CALM      30.17R
$$

NVZ030-031-036-311500-
NORTHERN NEVADA

CITY           SKY/WX    TMP DP  RH WIND       PRES   REMARKS
ELKO           CLEAR     52  32  46 CALM      30.08R
WINNEMUCCA     CLOUDY    57  25  29 SE7       30.02S
WENDOVER       PTCLDY    68  30  24 E6        30.05R
$$

NVZ035-037-311500-
CENTRAL NEVADA

CITY           SKY/WX    TMP DP  RH WIND       PRES   REMARKS
ELY            CLEAR     53  29  39 S9        30.21R
EUREKA           N/A     70  29  21 S14       30.14R
$$

NVZ013-014-311500-
SOUTH CENTRAL NEVADA

CITY           SKY/WX    TMP DP  RH WIND       PRES   REMARKS
TONOPAH        CLEAR     59  27  29 N7        30.12R
$$

NVZ017-020-022-311500-
SOUTHERN NEVADA

CITY           SKY/WX    TMP DP  RH WIND       PRES   REMARKS
LAS VEGAS      PTCLDY    83  38  20 CALM      29.89R
N. LAS VEGAS   CLEAR     78  43  28 NW6       29.90R
NELLIS AFB     CLEAR     79  44  29 N7        29.89R
HENDERSON      CLEAR     80  42  25 SW10      29.94R
MERCURY        CLEAR     79  37  22 S5        29.96R
$$




USA.gov is the U.S. government's official web portal to all federal, state and local government web resources and services.